Weather History for Hoonah, AK

Change the Weather History Date:

Saturday, March 2, 2013

  Actual Average Record
Temperature  
Mean Temperature 38 °F -  
Max Temperature 43 °F 34 °F 46 °F (2005)
Min Temperature 31 °F 26 °F 12 °F (2007)
Degree Days  
Heating Degree Days 28    
Moisture  
Dew Point 36 °F    
Average Humidity 95    
Maximum Humidity 100    
Minimum Humidity 76    
Precipitation  
Precipitation 0.00 in - - ()
Sea Level Pressure  
Sea Level Pressure 30.03 in    
Wind  
Wind Speed 4 mph (East)    
Max Wind Speed 7 mph    
Max Gust Speed -    
Visibility 10 miles    
Events      
Averages and records for this station are not official NWS values.
T = Trace of Precipitation, MM = Missing Value Source: NWS Daily Summary

Daily Weather History Graph

Daily Weather History Graph

Search for Another Location

Airport:

Trip Planner

Search our weather history database for the weather conditions in past years. The results will help you decide how hot, cold, wet, or windy it might be!

Date:

Astronomy

Mar. 02, 2013 Rise Set
Actual Time 6:52 AM AKST 5:36 PM AKST
Civil Twilight 6:13 AM AKST 6:15 PM AKST
Nautical Twilight 5:27 AM AKST 7:01 PM AKST
Astronomical Twilight 4:41 AM AKST 7:47 PM AKST
Moon No Moon Rise 8:08 AM AKST (3/2)
Length of Visible Light 12h 02m
Length of Day
10h 43m
Waning Gibbous, 72% of the Moon is Illuminated
Mar 2
Waning Gibbous
Mar 4
Last Quarter
Mar 11
New
Mar 19
First Quarter
Mar 27
Full

Hourly Weather History & Observations

Time (AKST) Temp. Windchill Dew Point Humidity Pressure Visibility Wind Dir Wind Speed Gust Speed Precip Events Conditions
12:28 AM 35.6 °F 32.8 °F 35.6 °F 100% 29.97 in 10.0 mi East 3.5 mph - N/A   Mostly Cloudy
12:56 AM 36.0 °F 32.1 °F 36.0 °F 100% 29.97 in 10.0 mi East 4.6 mph - N/A   Scattered Clouds
1:27 AM 37.4 °F 32.8 °F 37.4 °F 100% 29.97 in 10.0 mi ESE 5.8 mph - N/A   Mostly Cloudy
1:56 AM 36.9 °F 33.1 °F 36.9 °F 100% 29.97 in 10.0 mi ESE 4.6 mph - N/A   Mostly Cloudy
2:56 AM 37.4 °F 33.8 °F 37.4 °F 100% 29.97 in 10.0 mi ESE 4.6 mph - N/A   Mostly Cloudy
3:56 AM 34.9 °F 29.9 °F 34.9 °F 100% 29.96 in 10.0 mi East 5.8 mph - N/A   Scattered Clouds
4:56 AM 36.0 °F 31.1 °F 36.0 °F 100% 29.97 in 10.0 mi East 5.8 mph - N/A   Partly Cloudy
5:56 AM 36.0 °F 33.3 °F 36.0 °F 100% 29.97 in 10.0 mi Variable 3.5 mph - N/A   Scattered Clouds
6:56 AM 34.9 °F 32.0 °F 34.9 °F 100% 29.97 in 10.0 mi East 3.5 mph - N/A   Scattered Clouds
7:56 AM 36.9 °F 33.1 °F 36.9 °F 100% 29.98 in 10.0 mi NE 4.6 mph - N/A   Mostly Cloudy
8:56 AM 37.4 °F - 37.4 °F 100% 29.98 in 10.0 mi Calm Calm - N/A   Mostly Cloudy
9:56 AM 39.9 °F 35.8 °F 38.8 °F 96% 29.99 in 10.0 mi East 5.8 mph - N/A   Overcast
10:24 AM 39.2 °F 34.2 °F 37.4 °F 93% 29.99 in 10.0 mi East 6.9 mph - N/A   Mostly Cloudy
10:56 AM 39.9 °F 35.1 °F 37.9 °F 93% 30.01 in 10.0 mi East 6.9 mph - N/A   Mostly Cloudy
11:56 AM 41.0 °F 36.4 °F 37.9 °F 89% 30.01 in 10.0 mi East 6.9 mph - N/A   Overcast
12:56 PM 41.9 °F 39.0 °F 36.0 °F 79% 30.02 in 10.0 mi ESE 4.6 mph - N/A   Mostly Cloudy
1:56 PM 41.9 °F 39.0 °F 34.9 °F 76% 30.03 in 10.0 mi SE 4.6 mph - N/A   Mostly Cloudy
2:56 PM 43.0 °F 39.5 °F 36.0 °F 76% 30.03 in 10.0 mi ENE 5.8 mph - N/A   Partly Cloudy
3:56 PM 41.9 °F 40.0 °F 36.9 °F 82% 30.05 in 10.0 mi Variable 3.5 mph - N/A   Mostly Cloudy
4:56 PM 41.0 °F 39.0 °F 36.9 °F 85% 30.07 in 10.0 mi East 3.5 mph - N/A   Overcast
5:56 PM 37.4 °F - 37.4 °F 100% 30.08 in 10.0 mi Calm Calm - N/A   Overcast
6:56 PM 36.0 °F - 36.0 °F 100% 30.11 in 10.0 mi Calm Calm - N/A   Overcast
7:56 PM 34.9 °F 30.8 °F 34.9 °F 100% 30.12 in 10.0 mi East 4.6 mph - N/A   Overcast
8:56 PM 34.0 °F - 34.0 °F 100% 30.15 in 10.0 mi Calm Calm - N/A   Overcast
9:56 PM 34.0 °F - 34.0 °F 100% 30.17 in 10.0 mi Calm Calm - N/A   Overcast
10:56 PM 32.9 °F - 32.9 °F 100% 30.19 in 10.0 mi Calm Calm - N/A   Mostly Cloudy
11:56 PM 31.1 °F - 31.1 °F 100% 30.21 in 10.0 mi Calm Calm - N/A   Clear